Location: Bourréac
(43.1036°N, 0.0013°E)
Time: 10:24:39
(UTC+00:00)

Daily predictions for brighter satellites

Satellite Brightness Start Highest point End
(mag) Time Altitude Azimuth Time Altitude Azimuth Time Altitude Azimuth
Atlas Centaur 2 4.2 17:39:13 10° SW 17:45:21 30° S 17:52:16 10° ESE
Cosmos 1461 4.4 17:46:55 10° WSW 17:50:55 37° NW 17:55:05 10° NNE
Cosmos 2322 4.3 17:47:15 10° S 17:52:25 36° ESE 17:57:37 10° NE
Okean O Rocket 3.3 17:50:43 10° E 17:52:51 13° ENE 17:55:01 10° NNE
SMAP 4.2 17:48:35 10° S 17:53:05 50° W 17:57:37 10° NNW
Cosmos 1825 2.1 17:49:53 10° S 17:53:34 88° W 17:57:17 10° N
Cosmos 2228 4.3 17:49:53 10° NNW 17:53:54 44° W 17:57:56 10° SSW
Radarsat Rocket 4.2 17:49:26 10° SSE 17:55:34 81° ENE 18:02:31 10° NNW
CZ-4 R/B 3.1 17:53:33 10° E 17:55:36 14° ENE 17:57:41 10° NNE
YAOGAN 1 3.6 17:54:05 10° ESE 17:57:32 24° ENE 18:01:00 10° NNE
SKYMED 2 3.7 17:53:19 10° NNE 17:57:37 57° E 18:01:53 10° S
Cosmos 1745 Rocket 4.5 17:53:27 10° N 17:59:09 37° ENE 18:04:48 10° SE
Cosmos 1892 4.1 17:57:48 10° SSW 18:01:20 40° WNW 18:04:55 10° N
RESURS DK-1 2.7 17:57:23 10° NNW 18:01:30 72° WSW 18:05:35 10° SSE
DELTA 2 DEB (DPAF) 4.5 17:57:40 10° N 18:02:03 70° WNW 18:06:24 10° SSW
Cosmos 2058 Rocket 3.2 18:00:09 10° N 18:04:28 52° ENE 18:08:49 10° SSE
Meteor 2-12 Rocket 4.4 17:59:27 10° N 18:05:33 79° E 18:11:36 10° SSE
IRIDIUM 106 4.5 18:00:54 10° N 18:06:00 51° E 18:11:04 10° SSE
Cosmos 1844 Rocket 3.2 18:00:48 10° NNW 18:06:19 64° WSW 18:11:47 10° S
Cosmos 44 Rocket 3.3 18:07:33 10° SW 18:12:14 82° WNW 18:17:02 10° NNE
Cosmos-2242 4.4 18:09:41 10° NNE 18:12:26 17° ENE 18:15:11 10° ESE
Cosmos 1340 2.5 18:09:14 10° N 18:12:54 65° ENE 18:16:32 10° SSE
USA 215 3.3 18:09:03 10° ESE 18:15:30 70° NE 18:22:02 10° NW
Cosmos 1869 3.2 18:12:54 10° N 18:16:52 84° E 18:20:50 10° S
SL-08 R/B 4.5 18:12:31 10° N 18:18:50 80° E 18:25:10 10° S
PSLV R/B 4.1 18:16:33 10° SE 18:20:00 39° ENE 18:23:32 10° N
Cosmos 1553 Rocket 4.0 18:14:18 10° S 18:20:24 86° E 18:26:38 10° N
Cosmos 540 Rocket 4.5 18:18:56 10° NNW 18:23:54 50° WSW 18:28:48 10° S
Cosmos 1417 Rocket 4.4 18:18:11 10° S 18:24:20 67° E 18:30:29 10° NNE
Meteor 1-27 4.3 18:19:27 10° N 18:25:14 87° W 18:30:53 10° S
CZ-4B R/B 4.1 18:22:05 10° S 18:25:52 44° W 18:29:30 10° NNW
CZ-4B R/B 3.4 18:23:30 10° SE 18:28:36 46° ENE 18:33:49 10° N
ATLAS 2AS CENTAUR R/B 4.5 18:23:45 10° NW 18:29:47 34° WSW 18:35:33 10° S
Cosmos 2219 Rocket 2.2 18:24:55 10° SSW 18:30:30 89° WNW 18:36:09 10° NNE
CZ-4B DEB 4.2 18:27:29 10° SSE 18:32:56 87° WSW 18:38:26 10° NNW
Cosmos 2360 Rocket 3.5 18:28:45 10° SW 18:34:02 40° WNW 18:39:23 10° NNE
Cosmos 1602 Rocket 4.0 18:32:07 10° SSE 18:36:02 35° E 18:39:58 10° NNE
BlueWalker 3 2.9 18:32:36 10° NW 18:36:07 31° NNE 18:37:33 24° ENE
Cosmos 1814 Rocket 4.0 18:35:19 10° NNW 18:40:39 63° ENE 18:45:56 10° SSE
Cosmos 1606 2.6 18:37:59 10° N 18:41:48 63° E 18:45:33 10° SSE
Cosmos 841 Rocket 4.1 18:37:03 10° NNW 18:42:13 60° WSW 18:47:21 10° S
SJ-6B 4.5 18:44:58 18° NE 18:44:58 18° NE 18:46:39 10° NNE
Cosmos 2237 Rocket 3.0 18:40:41 10° SSE 18:45:25 28° ESE 18:46:55 25° ENE
COSMO-SKYMED 1 3.8 18:41:25 10° N 18:45:31 43° WNW 18:49:37 10° SW
Lacrosse 5 rocket 3.1 18:42:24 10° WNW 18:45:32 28° SW 18:48:45 10° S
MOS 1-B 4.3 18:41:37 10° SSE 18:47:23 72° ENE 18:53:11 10° N
IGS 5A 4.1 18:46:58 30° E 18:47:28 31° ENE 18:51:08 10° N
Cosmos 2322 Rocket 4.4 18:45:56 10° WSW 18:50:16 23° NW 18:54:39 10° N
Cosmos 1758 Rocket 3.8 18:46:45 10° SSE 18:50:51 44° E 18:55:01 10° NNE
NOSS 0 Rocket 4.2 18:45:40 10° S 18:51:34 47° ESE 18:56:15 16° NE
Cosmos 2278 Rocket 2.7 18:46:19 10° N 18:51:37 38° ENE 18:53:55 27° ESE
Cosmos 1356 Rocket 3.5 18:48:39 10° SSE 18:52:25 43° E 18:53:48 30° NE
Cosmos 1812 Rocket 3.7 18:49:46 10° N 18:54:06 48° ENE 18:58:22 10° SSE
Cosmos 1980 4.2 18:51:18 10° S 18:56:23 36° ESE 18:58:04 30° ENE
S3M 4.1 18:52:06 10° S 18:58:30 82° W 19:04:54 10° N
BREEZE-M DEB (TANK) 3.3 18:55:28 10° WNW 18:59:10 82° NNE 19:04:17 25° ESE
Cosmos 2333 Rocket 3.5 18:54:49 10° SW 19:00:04 38° WNW 19:05:22 10° NNE
CSL-04 Rocket 4.2 19:01:24 33° ENE 19:01:57 34° ENE 19:06:47 10° N
Cosmos 1626 Rocket 3.8 19:00:49 10° SSW 19:05:06 67° W 19:09:26 10° N
Cosmos 1943 Rocket 3.6 19:03:32 10° N 19:06:56 21° NE 19:06:56 21° NE
MINOTAUR 4 R/B 4.3 19:05:38 11° N 19:08:56 62° WNW 19:12:17 10° SSW
Iridium 2 3.7 19:10:18 10° N 19:13:55 71° W 19:17:31 10° S
COSMOS 2428 3.0 19:08:47 10° SW 19:14:25 67° WNW 19:20:05 10° NNE
Cosmos 968 Rocket 3.7 19:09:14 10° SSW 19:14:26 73° WNW 19:19:42 10° NNE
Lacrosse 5 3.9 19:12:30 10° NW 19:16:04 19° NNW 19:18:14 15° NNE
USA 81 4.3 19:11:03 10° SSW 19:16:17 71° W 19:21:34 10° N
Cosmos 1356 3.9 19:14:50 10° NNW 19:17:49 50° W 19:18:19 44° SW
SL-4 R/B 1.7 19:14:28 10° WNW 19:18:03 80° SW 19:18:04 80° SSW
Cosmos 2208 Rocket 3.9 19:14:43 10° NNW 19:19:54 66° ENE 19:21:18 46° SE
Cosmos 1570 Rocket 4.0 19:21:55 10° NNW 19:27:18 84° WSW 19:30:45 22° SSE
Meteor 2-2 Rocket 4.1 19:22:29 10° N 19:28:09 67° ENE 19:30:32 36° SSE
Okean O Rocket 1.9 19:24:15 10° S 19:28:37 67° WSW 19:33:03 10° NNW
Cosmos 2315 Rocket 4.1 19:22:28 10° S 19:28:48 79° W 19:35:14 10° N
CZ-4 R/B 2.1 19:26:04 10° S 19:30:04 54° W 19:34:02 10° NNW
Lacrosse 4 Rocket 4.0 19:28:26 10° N 19:28:37 11° N 19:28:37 11° N
YAOGAN 1 4.3 19:29:34 10° SSW 19:33:26 32° W 19:37:20 10° NNW
Atlas Centaur 2 4.2 19:27:22 10° WSW 19:34:01 31° S 19:37:36 22° SSE
Cosmos 2058 3.5 19:39:08 10° SSW 19:43:12 54° W 19:43:57 47° NW
Cosmos-2242 4.1 19:46:07 10° NNW 19:50:07 42° W 19:52:41 20° SSW
USA 215 4.5 19:53:48 14° S 19:58:47 36° SW 20:04:43 10° WNW
ATLAS 5 CENTAUR R/B 4.3 20:15:26 10° NNW 20:16:10 13° N 20:16:10 13° N
Cosmos 2074 Rocket 4.5 20:16:22 10° N 20:21:08 54° NNW 20:21:08 54° NNW
H-2A R/B 4.3 20:17:13 10° SSW 20:20:45 31° S 20:20:45 31° S
Cosmos 2237 Rocket 3.2 20:23:47 10° SW 20:28:51 44° WNW 20:28:51 44° WNW
Cosmos 2278 Rocket 3.6 20:30:35 10° NW 20:35:35 33° WSW 20:35:51 33° WSW
Cosmos 1943 Rocket 4.1 20:46:27 10° NNW 20:48:29 23° NNW 20:48:29 23° NNW
ATLAS 5 CENTAUR R/B 4.5 20:41:46 10° NW 21:14:05 76° WSW 21:14:23 76° SW
